Regional Weather Roundup
Issued by NWS

Home | Current Version | Previous Version | Text Only | Print | Product List | Glossary Off
Versions: 1 2 3 4 5 6 7 8 9 10 11 12 13 14 15 16 17 18 19 20 21 22 23 24 25 26 27 28 29 30 31 32 33 34 35 36 37 38 39 40 41 42 43 44 45 46 47 48 49 50

000
ASUS43 KLOT 021300
RWRIL

ILLINOIS REGIONAL WEATHER ROUNDUP
NATIONAL WEATHER SERVICE CHICAGO/ROMEOVILLE IL
800 AM CDT WED SEP 02 2015

NOTE: "FAIR" INDICATES FEW OR NO CLOUDS BELOW 12,000 FEET WITH NO
SIGNIFICANT WEATHER AND/OR OBSTRUCTIONS TO VISIBILITY.

* THESE STATIONS ARE NOT UNDER NWS QUALITY CONTROL. THEY ALSO MAY NOT
  REPORT WEATHER SUCH AS PRECIPITATION OR FOG.

ILZ001-002-007-009-015-016-024-021400-
NORTHWEST ILLINOIS

CITY           SKY/WX    TMP DP  RH WIND       PRES   REMARKS
MOLINE         MOSUNNY   74  68  81 CALM      30.06R
STERLING*      SUNNY     73  70  88 CALM      30.05S
$$

ILZ003-004-008-010-011-017-018-021400-
NORTH CENTRAL ILLINOIS

CITY           SKY/WX    TMP DP  RH WIND       PRES   REMARKS
ROCKFORD       PTSUNNY   72  68  87 S6        30.07R FOG
FREEPORT*      MOSUNNY   73  69  87 SW8       30.07S
$$

ILZ005-006-012>014-019>023-021400-
NORTHEAST ILLINOIS

CITY           SKY/WX    TMP DP  RH WIND       PRES   REMARKS
CHICAGO-OHARE  MOSUNNY   74  69  85 W6        30.06R
CHICAGO-MIDWAY MOSUNNY   76  69  79 W6        30.07R
AURORA         SUNNY     72  69  90 SW5       30.08R FOG
LANSING*       SUNNY     72  69  89 SW3       30.08S
WAUKEGAN       SUNNY     73  69  87 VRB3      30.05R
DUPAGE AIRPORT SUNNY     72  68  87 SW5       30.07R FOG
WHEELING       SUNNY     75  68  78 S3        30.07R
NORTHERLY ISL    N/A     75  67  76 W7          N/A
$$

LMZ740>746-021400-
SOUTHERN LAKE MICHIGAN

STATION/POSITION SKY/WX   TEMP    WIND        PRES    VSBY  WAVE
                          AIR SEA DIR/SP/G                  HT/PER
                          (F)     (DEG/KT/KT) (MB)    (MI)  (FT/S)
SOUTHERN BUOY              72 70  210/ 10/ 12 1016.8R         1
WILMETTE HARBOR            69 60  350/  4/  6   N/A           0
HARRISON CRIB              74     200/  8/ 10   N/A
BURNHAM HARBOR             76     270/  6/  8   N/A
CALUMET HARBOR             72     210/  3/  6   N/A
MICHIGAN CITY              72     180/  9/ 11   N/A
MICHIGAN CITY 6N           73 72  210/  6/  8   N/A           1/ 3
ST. JOSEPH                 73 72  250/  8/ 10   N/A           1/ 3
$$

ILZ025>027-034>036-040-047-049-050-058-095>099-021400-
WEST-CENTRAL ILLINOIS

CITY           SKY/WX    TMP DP  RH WIND       PRES   REMARKS
QUINCY         SUNNY     73  70  90 S6        30.09R
$$

ILZ028>032-037-038-041>044-048-051>054-059>061-021400-
CENTRAL ILLINOIS

CITY           SKY/WX    TMP DP  RH WIND       PRES   REMARKS
DECATUR        SUNNY     75  69  81 SW6       30.12R
PEORIA         MOSUNNY   75  70  84 S6        30.09R HAZE
SPRINGFIELD    SUNNY     76  70  82 S7        30.10R
TAYLORVILLE    NOT AVBL
$$

ILZ033-039-045-046-055>057-062-063-021400-
EAST-CENTRAL ILLINOIS

CITY           SKY/WX    TMP DP  RH WIND       PRES   REMARKS
CHAMPAIGN      SUNNY     73  70  90 SW5       30.12R FOG
MATTOON        SUNNY     73  68  84 S6        30.13R
$$

ILZ079-100>102-021400-
SOUTHWEST ILLINOIS

CITY           SKY/WX    TMP DP  RH WIND       PRES   REMARKS
BELLEVILLE     SUNNY     72  72 100 SE1       30.10S
CAHOKIA*       SUNNY     74  69  85 CALM      30.11R
SPARTA*        SUNNY     72  70  93 CALM      30.13S
$$

ILZ064>066-069>071-074>076-080>082-084>086-088>090-092>094-021400-
SOUTH-CENTRAL ILLINOIS

CITY           SKY/WX    TMP DP  RH WIND       PRES   REMARKS
CARBONDALE     SUNNY     72  69  90 CALM      30.14R FOG
MARION         SUNNY     73  72  94 E3        30.14R
MT. VERNON     SUNNY     70  64  83 CALM      30.15S
$$

ILZ067-068-072-073-078-083-087-091-021400-
SOUTHEAST ILLINOIS

CITY           SKY/WX    TMP DP  RH WIND       PRES   REMARKS
LAWRENCEVILLE    N/A     73  70  90 CALM      30.15R FOG
FLORA*         SUNNY     70  68  95 CALM      30.14S FOG
ROBINSON*      SUNNY     69  68  97 CALM      30.15R FOG
$$

ABBREVIATIONS USED IN REMARKS
   TC - TEMPERATURE IN CELSIUS
  WCI - WIND CHILL INDEX
   HX - HEAT INDEX
  VSB - VISIBILITY
$$



USA.gov is the U.S. government's official web portal to all federal, state and local government web resources and services.